Osceola, WI

10:48 PM CDT on March 23, 2017 (GMT -0500)
Simenstad Municipal

Weather History for KOEO - March, 2014

Change the Weather History Date:

Saturday, March 22, 2014

  Actual Average (KANE) Record (KANE)
Temperature  
Mean Temperature 14 °F -  
Max Temperature 20 °F 40 °F 68 °F (2012)
Min Temperature 6 °F 23 °F 8 °F (2013)
Degree Days  
Heating Degree Days 51    
Moisture  
Dew Point 3 °F    
Average Humidity 64    
Maximum Humidity 77    
Minimum Humidity 52    
Precipitation  
Precipitation 0.00 in - - ()
Sea Level Pressure  
Sea Level Pressure 30.38 in    
Wind  
Wind Speed 13 mph (NW)    
Max Wind Speed 17 mph    
Max Gust Speed 25 mph    
Visibility 10 miles    
Events      
Averages and records for this station are not official NWS values.
T = Trace of Precipitation, MM = Missing Value Source: NWS Daily Summary

Daily Weather History Graph

Daily Weather History Graph

Search for Another Location

Airport or City:

Trip Planner

Search our weather history database for the weather conditions in past years. The results will help you decide how hot, cold, wet, or windy it might be!

Date:

Astronomy

Mar. 22, 2014 Rise Set
Actual Time 7:10 AM CDT 7:25 PM CDT
Civil Twilight 6:40 AM CDT 7:55 PM CDT
Nautical Twilight 6:05 AM CDT 8:30 PM CDT
Astronomical Twilight 5:30 AM CDT 9:05 PM CDT
Moon 12:58 AM CDT (3/22) 10:40 AM CDT (3/22)
Length of Visible Light 13h 14m
Length of Day
12h 15m
Waning Gibbous, 65% of the Moon is Illuminated
Mar 22
Waning Gibbous
Mar 23
Last Quarter
Mar 30
New
Apr 7
First Quarter
Apr 15
Full

Hourly Weather History & Observations

Time (CDT) Temp. Windchill Dew Point Humidity Pressure Visibility Wind Dir Wind Speed Gust Speed Precip Events Conditions
12:15 AM 22.5 °F 8.9 °F 15.8 °F 76% 30.16 in 10.0 mi WNW 16.1 mph 24.2 mph N/A   Overcast
12:35 AM 21.6 °F 8.2 °F 14.9 °F 76% 30.17 in 10.0 mi WNW 15.0 mph 24.2 mph N/A   Overcast
12:55 AM 20.5 °F 6.4 °F 14.2 °F 77% 30.18 in 10.0 mi NW 16.1 mph 24.2 mph N/A   Overcast
1:15 AM 19.4 °F 5.0 °F 12.6 °F 75% 30.18 in 10.0 mi NW 16.1 mph 24.2 mph N/A   Overcast
1:35 AM 18.5 °F 3.8 °F 11.8 °F 75% 30.19 in 10.0 mi WNW 16.1 mph 21.9 mph N/A   Overcast
1:55 AM 16.9 °F 2.3 °F 10.0 °F 75% 30.21 in 10.0 mi NW 15.0 mph 24.2 mph N/A   Overcast
2:15 AM 15.8 °F 1.4 °F 8.6 °F 73% 30.22 in 10.0 mi NW 13.8 mph 17.3 mph N/A   Mostly Cloudy
2:35 AM 14.9 °F 0.3 °F 7.7 °F 73% 30.23 in 10.0 mi NW 13.8 mph 23.0 mph N/A   Scattered Clouds
2:55 AM 14.0 °F -0.2 °F 6.8 °F 73% 30.24 in 10.0 mi NW 12.7 mph 23.0 mph N/A   Clear
3:15 AM 13.5 °F -2.7 °F 5.9 °F 72% 30.25 in 10.0 mi NW 16.1 mph - N/A   Clear
3:35 AM 12.9 °F -3.9 °F 5.0 °F 71% 30.26 in 10.0 mi NW 17.3 mph 25.3 mph N/A   Clear
3:55 AM 12.4 °F -3.5 °F 4.6 °F 71% 30.26 in 10.0 mi NW 15.0 mph 20.7 mph N/A   Clear
4:15 AM 11.8 °F -4.2 °F 3.9 °F 71% 30.26 in 10.0 mi NW 15.0 mph 21.9 mph N/A   Clear
4:35 AM 11.3 °F -4.9 °F 3.4 °F 70% 30.27 in 10.0 mi NW 15.0 mph 19.6 mph N/A   Clear
4:55 AM 10.4 °F -5.4 °F 2.8 °F 72% 30.28 in 10.0 mi NW 13.8 mph 23.0 mph N/A   Clear
5:15 AM 9.9 °F -6.7 °F 2.3 °F 71% 30.29 in 10.0 mi NW 15.0 mph 20.7 mph N/A   Clear
5:35 AM 9.1 °F -7.7 °F 1.8 °F 72% 30.30 in 10.0 mi NW 15.0 mph 19.6 mph N/A   Clear
5:55 AM 8.6 °F -7.0 °F 1.2 °F 72% 30.31 in 10.0 mi NW 12.7 mph 18.4 mph N/A   Clear
6:15 AM 8.2 °F -6.8 °F 0.7 °F 71% 30.32 in 10.0 mi NW 11.5 mph - N/A   Clear
6:35 AM 7.7 °F -8.9 °F 0.3 °F 72% 30.33 in 10.0 mi NW 13.8 mph 19.6 mph N/A   Clear
6:55 AM 7.0 °F -10.4 °F -0.9 °F 70% 30.34 in 10.0 mi NW 15.0 mph 19.6 mph N/A   Clear
7:15 AM 6.8 °F -9.3 °F -1.3 °F 69% 30.36 in 10.0 mi NW 12.7 mph - N/A   Clear
7:35 AM 6.4 °F -9.8 °F -1.3 °F 71% 30.37 in 10.0 mi NW 12.7 mph 19.6 mph N/A   Clear
7:55 AM 6.4 °F -10.5 °F -1.7 °F 69% 30.38 in 10.0 mi NW 13.8 mph - N/A   Clear
8:15 AM 6.4 °F -9.0 °F -2.0 °F 68% 30.39 in 10.0 mi NW 11.5 mph 18.4 mph N/A   Clear
8:35 AM 6.8 °F -7.8 °F -1.8 °F 68% 30.39 in 10.0 mi NW 10.4 mph 17.3 mph N/A   Clear
8:55 AM 6.8 °F -11.3 °F -2.0 °F 67% 30.40 in 10.0 mi NW 16.1 mph - N/A   Clear
9:15 AM 7.3 °F -8.6 °F -1.8 °F 66% 30.41 in 10.0 mi NW 12.7 mph - N/A   Clear
9:35 AM 7.7 °F -8.9 °F -1.3 °F 67% 30.42 in 10.0 mi NW 13.8 mph 18.4 mph N/A   Clear
9:55 AM 8.4 °F -7.3 °F -0.9 °F 66% 30.42 in 10.0 mi WNW 12.7 mph - N/A   Clear
10:15 AM 9.0 °F -7.3 °F -1.1 °F 64% 30.42 in 10.0 mi NW 13.8 mph - N/A   Clear
10:35 AM 9.9 °F -4.7 °F -0.4 °F 63% 30.43 in 10.0 mi NNW 11.5 mph 17.3 mph N/A   Clear
10:55 AM 10.8 °F -4.3 °F 0.3 °F 63% 30.43 in 10.0 mi NW 12.7 mph 18.4 mph N/A   Clear
11:15 AM 11.3 °F -4.3 °F 0.3 °F 61% 30.43 in 10.0 mi NW 13.8 mph 19.6 mph N/A   Clear
11:35 AM 12.0 °F -4.0 °F 0.3 °F 59% 30.43 in 10.0 mi NW 15.0 mph 23.0 mph N/A   Clear
11:55 AM 12.9 °F -1.6 °F 0.7 °F 58% 30.44 in 10.0 mi NW 12.7 mph 19.6 mph N/A   Clear
12:15 PM 13.6 °F -1.9 °F 1.2 °F 58% 30.44 in 10.0 mi NW 15.0 mph 18.4 mph N/A   Clear
12:35 PM 14.2 °F 0.0 °F 1.9 °F 58% 30.44 in 10.0 mi NNW 12.7 mph - N/A   Clear
12:55 PM 14.7 °F 1.4 °F 2.1 °F 57% 30.44 in 10.0 mi WNW 11.5 mph - N/A   Clear
1:15 PM 15.3 °F 1.4 °F 2.7 °F 58% 30.43 in 10.0 mi North 12.7 mph 18.4 mph N/A   Clear
1:35 PM 16.0 °F 4.4 °F 2.8 °F 56% 30.43 in 10.0 mi North 9.2 mph 16.1 mph N/A   Clear
1:55 PM 16.3 °F 3.4 °F 2.8 °F 55% 30.42 in 10.0 mi NNW 11.5 mph 16.1 mph N/A   Clear
2:15 PM 16.7 °F 3.2 °F 3.6 °F 56% 30.43 in 10.0 mi NW 12.7 mph 17.3 mph N/A   Clear
2:35 PM 17.6 °F 2.7 °F 4.6 °F 57% 30.43 in 10.0 mi WNW 16.1 mph 23.0 mph N/A   Clear
2:55 PM 17.8 °F 3.4 °F 3.6 °F 54% 30.42 in 10.0 mi NW 15.0 mph 18.4 mph N/A   Clear
3:15 PM 18.1 °F 4.4 °F 3.6 °F 53% 30.42 in 10.0 mi NW 13.8 mph 19.6 mph N/A   Clear
3:35 PM 18.3 °F 4.6 °F 3.7 °F 53% 30.42 in 10.0 mi NW 13.8 mph 19.6 mph N/A   Clear
3:55 PM 18.5 °F 3.8 °F 4.1 °F 54% 30.41 in 10.0 mi NW 16.1 mph 23.0 mph N/A   Clear
4:15 PM 18.9 °F 4.3 °F 3.9 °F 52% 30.41 in 10.0 mi NW 16.1 mph 21.9 mph N/A   Clear
4:35 PM 19.0 °F 6.8 °F 3.9 °F 52% 30.41 in 10.0 mi NNW 11.5 mph 18.4 mph N/A   Clear
4:55 PM 19.0 °F 9.0 °F 4.1 °F 52% 30.42 in 10.0 mi NW 8.1 mph 16.1 mph N/A   Clear
5:15 PM 18.9 °F 7.2 °F 3.9 °F 52% 30.42 in 10.0 mi NNW 10.4 mph - N/A   Clear
5:35 PM 19.8 °F 8.3 °F 5.2 °F 53% 30.43 in 10.0 mi NW 10.4 mph - N/A   Scattered Clouds
5:55 PM 18.9 °F 6.5 °F 4.3 °F 53% 30.44 in 10.0 mi WNW 11.5 mph - N/A   Scattered Clouds
6:15 PM 18.7 °F 6.3 °F 4.6 °F 54% 30.44 in 10.0 mi NNW 11.5 mph - N/A   Scattered Clouds
6:35 PM 17.8 °F 6.6 °F 4.5 °F 56% 30.45 in 10.0 mi NNW 9.2 mph - N/A   Scattered Clouds
6:55 PM 17.4 °F 4.7 °F 3.9 °F 56% 30.45 in 10.0 mi NNW 11.5 mph 18.4 mph N/A   Clear
7:15 PM 16.7 °F 4.5 °F 3.6 °F 56% 30.45 in 10.0 mi NNW 10.4 mph - N/A   Clear
7:35 PM 15.8 °F 4.2 °F 3.2 °F 58% 30.46 in 10.0 mi NNW 9.2 mph - N/A   Clear
7:55 PM 15.6 °F 4.9 °F 3.2 °F 58% 30.46 in 10.0 mi NNW 8.1 mph - N/A   Clear
8:15 PM 15.3 °F 5.4 °F 3.0 °F 58% 30.47 in 10.0 mi NNW 6.9 mph - N/A   Clear
8:35 PM 14.7 °F 5.9 °F 2.8 °F 59% 30.48 in 10.0 mi NW 5.8 mph - N/A   Clear
8:55 PM 14.4 °F 8.6 °F 2.8 °F 60% 30.48 in 10.0 mi NW 3.5 mph - N/A   Clear
9:15 PM 13.8 °F 2.7 °F 2.7 °F 61% 30.49 in 10.0 mi NW 8.1 mph - N/A   Clear
9:35 PM 13.8 °F 4.9 °F 2.5 °F 61% 30.49 in 10.0 mi NW 5.8 mph - N/A   Clear
9:55 PM 13.1 °F 4.0 °F 2.7 °F 63% 30.49 in 10.0 mi NW 5.8 mph - N/A   Clear
10:15 PM 12.9 °F 3.8 °F 2.3 °F 63% 30.50 in 10.0 mi NW 5.8 mph - N/A   Clear
10:35 PM 12.6 °F 3.4 °F 2.1 °F 63% 30.50 in 10.0 mi NW 5.8 mph - N/A   Clear
10:55 PM 12.0 °F 5.9 °F 2.1 °F 65% 30.50 in 10.0 mi NW 3.5 mph - N/A   Clear
11:15 PM 11.7 °F 3.7 °F 2.1 °F 66% 30.50 in 10.0 mi NW 4.6 mph - N/A   Clear
11:35 PM 11.3 °F 1.9 °F 2.1 °F 67% 30.51 in 10.0 mi NW 5.8 mph - N/A   Clear
11:55 PM 11.3 °F 0.7 °F 2.1 °F 67% 30.51 in 10.0 mi WNW 6.9 mph - N/A   Clear